Location: Campillo
(40.8621°N, 4.2488°W)
Time: 15:20:25
(UTC+00:00)

Cosmos 1777 Rocket - Pass Details

Date: 02 October 2021
Orbit: 759 x 775 km, 74.0° (Epoch: 18 October)

Event Time Altitude Azimuth Distance (km) Brightness Sun altitude
Rises 02:38:24 0° 357° (N) 3,227 7.6 -39.5°
Reaches altitude 10° 02:42:07 10° 24° (NNE) 2,297 7.0 -38.9°
Maximum altitude 02:44:37 13° 53° (NE) 2,063 6.9 -38.6°
Drops below altitude 10° 02:47:07 10° 82° (E) 2,292 7.0 -38.2°
Sets 02:50:48 0° 109° (ESE) 3,214 7.6 -37.6°
